Volver al catálogo

SL-16 DEB

ActivoLEO
NORAD 39715·DEBRIS·🇷🇺 Russia

Lanzado Dec 25, 1992 desde Baikonur Cosmodrome

Loading…

Próximos Pases (próximas 24 horas)

TLE

ActualizadoSource: Space-Track

Época: Sep 13, 2026, 14:15 UTC

1 39715U 92093KF  26256.59395771  .00000572  00000-0  22682-3 0  9992
2 39715  71.0132 328.9994 0006427 277.5905  82.4498 14.33020107647181

Sigue SL-16 DEB en tiempo real con AllMySat

Download on the App Store